Tracking 29892 objects as of 21-Nov-2024
HD Live streaming from Space Station
objects crossing your sky now

NOAA 16 DEB

Track NOAA 16 DEB now!
10-day predictions


NORAD ID: 41709
Int'l Code: 2000-055PP
Perigee: 716.3 km
Apogee: 745.3 km
Inclination: 99.0 °
Period: 99.3 minutes
Semi major axis: 7101 km
RCS: Unknown
Launch date: September 21, 2000
Source: United States (US)
Launch site: AIR FORCE WESTERN TEST RANGE (AFWTR)

Note: This is SATELLITE DEBRIS
Your satellite tracking list
Your tracking list is empty




NASA's NSSDC Master Catalog

Two Line Element Set (TLE):
1 41709U 00055PP  24325.41189973  .00030056  00000-0  76210-2 0  9991
2 41709  98.9590 127.3784 0020460 356.5884   3.5165 14.50607060450273
Source of the keplerian elements: AFSPC